Location: LDNL
(36.4545°S, 141.6685°E)
Time: 04:08:50
(UTC+11:00)

Vanguard 2 - Pass Details

Date: 14 August 2022
Orbit: 552 x 2934 km, 32.9° (Epoch: 06 October)

Event Time Altitude Azimuth Distance (km) Brightness Sun altitude
Rises 15:22:58 0° 317° (NW) 6,627 13.6 26.0°
Reaches altitude 10° 15:27:33 10° 322° (NW) 5,719 13.8 25.4°
Maximum altitude 15:44:01 46° 28° (NNE) 3,412 11.2 22.9°
Drops below altitude 10° 15:57:31 10° 95° (E) 4,771 11.1 20.8°
Sets 16:00:54 0° 100° (E) 5,494 11.4 20.3°
